TimeHST,TemperatureF,Dew PointF,Humidity,Sea Level PressureIn,VisibilityMPH,Wind Direction,Wind SpeedMPH,Gust SpeedMPH,PrecipitationIn,Events,Conditions,WindDirDegrees,DateUTC
12:53 AM,70.0,64.9,84,30.14,10.0,SW,6.9,-,N/A,,Mostly Cloudy,230,2013-04-06 10:53:00
1:53 AM,69.1,64.9,87,30.12,10.0,SW,3.5,-,N/A,,Overcast,230,2013-04-06 11:53:00
2:53 AM,70.0,64.9,84,30.10,10.0,SW,5.8,-,0.00,,Mostly Cloudy,220,2013-04-06 12:53:00
3:53 AM,70.0,64.9,84,30.10,10.0,Calm,Calm,-,N/A,,Mostly Cloudy,0,2013-04-06 13:53:00
4:20 AM,70.0,64.9,84,30.11,10.0,Calm,Calm,-,0.00,Rain,Light Rain,0,2013-04-06 14:20:00
4:53 AM,70.0,66.0,87,30.11,10.0,SSW,3.5,-,0.00,,Overcast,210,2013-04-06 14:53:00
5:12 AM,69.1,64.9,87,30.12,10.0,SSW,3.5,-,N/A,,Mostly Cloudy,200,2013-04-06 15:12:00
5:53 AM,69.1,66.0,90,30.13,9.0,SW,5.8,-,0.00,Rain,Light Rain,220,2013-04-06 15:53:00
6:46 AM,70.0,64.9,84,30.15,10.0,SSW,5.8,-,0.00,,Overcast,210,2013-04-06 16:46:00
6:53 AM,70.0,64.9,84,30.15,10.0,SSW,3.5,-,0.00,,Mostly Cloudy,200,2013-04-06 16:53:00
7:40 AM,71.1,66.9,87,30.16,9.0,SW,8.1,-,0.01,Rain,Light Rain,220,2013-04-06 17:40:00
7:53 AM,71.1,66.9,87,30.16,10.0,SSW,3.5,-,0.05,,Overcast,210,2013-04-06 17:53:00
8:26 AM,73.0,68.0,84,30.17,10.0,SSW,6.9,-,N/A,,Overcast,200,2013-04-06 18:26:00
8:33 AM,73.0,68.0,84,30.17,10.0,SSW,4.6,-,0.00,Rain,Light Rain,210,2013-04-06 18:33:00
8:53 AM,73.9,69.1,85,30.17,10.0,SSW,6.9,-,0.00,,Overcast,200,2013-04-06 18:53:00
9:46 AM,73.9,69.1,85,30.18,3.0,SSW,6.9,-,0.00,Rain,Heavy Rain,200,2013-04-06 19:46:00
9:53 AM,73.9,69.1,85,30.18,4.0,SSE,6.9,-,0.06,Rain,Light Rain,150,2013-04-06 19:53:00
10:18 AM,77.0,70.0,79,30.18,10.0,SE,9.2,-,0.00,,Overcast,140,2013-04-06 20:18:00
10:53 AM,80.1,69.1,69,30.17,10.0,SE,12.7,-,0.00,,Mostly Cloudy,140,2013-04-06 20:53:00
12:33 PM,81.0,66.9,62,30.16,10.0,SE,17.3,25.3,N/A,,Scattered Clouds,134,2013-04-06 22:33:00
12:36 PM,81.0,66.9,62,30.16,10.0,SE,17.3,25.3,N/A,,Scattered Clouds,134,2013-04-06 22:36:00
12:53 PM,82.0,69.1,65,30.14,10.0,SE,13.8,-,N/A,,Mostly Cloudy,130,2013-04-06 22:53:00
1:14 PM,81.0,66.9,62,30.13,10.0,ESE,15.0,21.9,N/A,,Mostly Cloudy,120,2013-04-06 23:14:00
1:53 PM,80.1,66.9,64,30.11,10.0,ESE,16.1,23.0,N/A,,Partly Cloudy,110,2013-04-06 23:53:00
2:53 PM,79.0,66.9,66,30.09,10.0,SE,13.8,-,N/A,,Mostly Cloudy,130,2013-04-07 00:53:00
3:53 PM,78.1,68.0,71,30.09,10.0,SE,13.8,-,N/A,,Overcast,130,2013-04-07 01:53:00
4:08 PM,77.0,68.0,74,30.09,10.0,SE,13.8,20.7,N/A,,Overcast,130,2013-04-07 02:08:00
4:39 PM,77.0,68.0,74,30.10,10.0,ESE,11.5,-,N/A,,Overcast,110,2013-04-07 02:39:00
4:53 PM,75.9,68.0,76,30.09,10.0,ESE,11.5,-,N/A,,Overcast,110,2013-04-07 02:53:00
5:23 PM,75.9,68.0,76,30.10,10.0,SE,6.9,-,N/A,,Overcast,130,2013-04-07 03:23:00
5:53 PM,75.9,68.0,76,30.12,10.0,SE,8.1,-,N/A,,Overcast,130,2013-04-07 03:53:00
6:53 PM,75.0,68.0,79,30.14,10.0,South,3.5,-,N/A,,Overcast,190,2013-04-07 04:53:00
7:13 PM,75.0,68.0,79,30.15,10.0,Calm,Calm,-,N/A,,Overcast,0,2013-04-07 05:13:00
7:53 PM,73.9,68.0,82,30.17,10.0,South,3.5,-,N/A,,Overcast,180,2013-04-07 05:53:00
8:01 PM,73.9,68.0,82,30.17,10.0,SSE,5.8,-,N/A,,Overcast,150,2013-04-07 06:01:00
8:53 PM,73.0,68.0,84,30.19,10.0,South,3.5,-,N/A,,Mostly Cloudy,190,2013-04-07 06:53:00
9:53 PM,72.0,68.0,87,30.20,10.0,SSW,5.8,-,N/A,,Mostly Cloudy,200,2013-04-07 07:53:00
10:53 PM,72.0,66.9,84,30.21,10.0,SSW,5.8,-,N/A,,Mostly Cloudy,200,2013-04-07 08:53:00
11:53 PM,72.0,66.9,84,30.19,10.0,SSW,4.6,-,N/A,,Overcast,200,2013-04-07 09:53:00